[[{"header":{"parameterUnit":"m.s-1","parameterCategory":1,"la1":30.2991,"la2":30.254,"lo1":-89.0895,"lo2":-89.0444,"dy":0.0017,"dx":0.0017,"nx":28,"ny":28,"refTime":"2024-09-04T09:00:00:Z","depth":0,"parameterNumber":2,"parameterNumberName":"U-component_of_WINDS"},"data":[0,0,0,0,0,0,0,0,0,0,0,0,0,0,0,0,0,0,0,0,0,0,0,0,0,0,0,0,0,0,0,0,0,0,0,0,0,0,0,0,0,0,0,0,0,0,0,0,0,0,0,0,0,0,0,0,0,0,-7.3785,-7.3787,0,-7.3907,-7.3908,-7.391,-7.3761,-7.3756,-7.375,-7.3745,-7.3872,-7.388,-7.3889,0,0,0,0,0,0,0,0,0,0,0,0,0,-7.3426,-7.3433,-7.3785,-7.3787,-7.3788,-7.3907,-7.3909,-7.391,-7.3762,-7.3755,-7.3749,-7.3742,-7.3869,-7.3879,-7.389,0,0,0,0,0,0,0,0,0,0,0,0,0,-7.3569,-7.3436,-7.3785,-7.3729,-7.3725,-7.3907,-7.3909,-7.3911,-7.3763,-7.3755,-7.3747,-7.3739,-7.3866,-7.3878,-7.3891,-7.4135,0,0,-7.393,-7.3936,0,0,0,0,0,0,0,0,-7.3561,-7.3582,-7.3735,-7.3733,-7.3729,-7.381,-7.3828,-7.3986,-7.3765,-7.3749,-7.3745,-7.3735,-7.3859,-7.3871,-7.3912,-7.4141,-7.4146,-7.3931,-7.3939,-7.3944,-7.3948,0,0,0,0,0,0,0,-7.3551,-7.3576,-7.3833,-7.3738,-7.3734,-7.3698,-7.3709,-7.3858,-7.3849,-7.375,-7.3739,-7.3755,-7.3855,-7.39,-7.3914,-7.4148,-7.3931,-7.3942,-7.395,-7.3955,-7.4583,-7.4592,0,0,0,0,0,0,-7.3547,-7.3569,-7.383,-7.3837,-7.3623,-7.3711,-7.3723,-7.3793,-7.3846,-7.3847,-7.3762,-7.3748,-7.3883,-7.39,-7.3918,-7.4208,-7.3944,-7.3956,-7.3964,-7.4574,-7.4585,-7.4595,0,0,0,0,0,0,-7.354,-7.3572,-7.3825,-7.37,-7.3729,-7.3726,-7.3805,-7.3799,-7.3844,-7.3856,-7.3854,-7.381,-7.3877,-7.39,-7.4082,-7.421,-7.3962,-7.3974,-7.4564,-7.4578,-7.459,-7.4789,0,0,0,0,0,0,-7.3531,-7.357,-7.3663,-7.3703,-7.3737,-7.3987,-7.3813,-7.3808,-7.3867,-7.3849,-7.39,-7.3901,-7.3872,-7.4064,-7.4095,-7.4223,-7.3984,-7.4552,-7.457,-7.4586,-7.4771,-7.4808,-7.4839,0,0,0,0,0,-7.3518,-7.3714,-7.3668,-7.3701,-7.3852,-7.3994,-7.4013,-7.3976,-7.3877,-7.3971,-7.3978,-7.3899,-7.4191,-7.4084,-7.4117,-7.4252,-7.4544,-7.4565,-7.4585,-7.4756,-7.4801,-7.4838,0,0,0,0,0,0,-7.369,-7.3719,-7.3668,-7.3883,-7.3937,-7.3969,-7.4085,-7.4024,-7.4108,-7.4088,-7.4038,-7.4051,-7.4245,-7.4266,-7.4146,-7.449,-7.4351,-7.4379,-7.447,-7.4513,-7.4546,-7.4538,-7.3994,0,0,0,0,0,-7.3753,-7.3866,-7.3884,-7.4072,-7.4102,-7.409,-7.415,-7.4116,-7.4171,-7.4193,-7.4214,-7.4271,-7.4374,-7.4444,-7.4541,-7.4773,-7.4782,-7.4882,-7.4916,-7.4943,-7.4969,-7.5094,-7.5138,-7.4662,-7.4662,-7.4661,0,0,-7.3884,-7.3914,-7.3988,-7.4108,-7.4146,-7.4264,-7.411,-7.4242,-7.4329,-7.4213,-7.4386,-7.4404,-7.4463,-7.4672,-7.4764,-7.4695,-7.5102,-7.4969,-7.4991,-7.5002,-7.5119,-7.5164,-7.5205,-7.4676,-7.4673,-7.4671,0,0,-7.4184,-7.4217,-7.4378,-7.4419,-7.4478,-7.4468,-7.4507,-7.4548,-7.4555,-7.4727,-7.4643,-7.4746,-7.4927,-7.4973,-7.502,-7.5337,-7.5268,-7.537,-7.5548,-7.5671,-7.5708,-7.5741,-7.5855,-7.5897,-7.5395,-7.5395,-7.5395,0,-7.434,-7.4515,-7.4468,-7.4606,-7.4662,-7.4561,-7.4723,-7.4765,-7.4854,-7.4895,-7.4815,-7.504,-7.5073,-7.5291,-7.5368,-7.5409,-7.5453,-7.5365,-7.5706,-7.5739,-7.5769,-7.5877,-7.592,-7.5407,-7.5406,-7.5405,-7.5403,0,-7.4704,-7.4826,-7.4949,-7.5036,-7.5105,-7.5255,-7.5231,-7.5307,-7.5266,-7.5265,-7.5443,-7.5478,-7.5581,-7.5629,-7.5592,-7.5843,-7.5798,-7.5714,-7.5573,-7.5827,-7.5928,-7.5969,-7.5424,-7.542,-7.5417,-7.5414,0,0,-7.5117,-7.5176,-7.5222,-7.526,-7.5318,-7.5412,-7.5557,-7.5656,-7.5722,-7.5786,-7.5907,-7.6062,-7.5984,-7.6037,-7.6004,-7.6111,-7.6361,-7.6013,-7.6014,-7.6078,-7.6641,-7.6705,-7.6754,-7.6315,-7.6323,-7.6329,-7.6636,0,-7.5418,-7.5669,-7.5631,-7.5873,-7.5986,-7.5891,-7.6018,-7.6067,-7.607,-7.6166,-7.6169,-7.628,-7.6168,-7.62,-7.6301,-7.6309,-7.6474,-7.6286,-7.6429,-7.6434,-7.6418,-7.6806,-7.6875,-7.7163,-7.6675,-7.6682,-7.6687,0,-7.5804,-7.5881,-7.6135,-7.6174,-7.622,-7.6335,-7.6422,-7.6515,-7.6569,-7.6563,-7.6624,-7.657,-7.6716,-7.6572,-7.6772,-7.6646,-7.6702,-7.6714,-7.6724,-7.6738,-7.6577,-7.6832,-7.7254,-7.7298,-7.6748,-7.6743,-7.6739,0,-7.6081,-7.6249,-7.6422,-7.6458,-7.6508,-7.6591,-7.6616,-7.6661,-7.6723,-7.68,-7.684,-7.6933,-7.6985,-7.7058,-7.7032,-7.6929,-7.7239,-7.7092,-7.7239,-7.724,-7.731,-7.7306,-7.7749,-7.7344,-7.7343,-7.7342,-7.7342,0,-7.6423,-7.6582,-7.6547,-7.6655,-7.683,-7.6785,-7.696,-7.6973,-7.7015,-7.7123,-7.7046,-7.715,-7.7108,-7.7209,-7.7189,-7.7359,-7.7383,-7.7383,-7.7376,-7.7391,-7.7391,-7.7428,-7.7408,-7.7354,-7.7351,-7.7349,-7.7347,0,-7.6763,-7.6747,-7.6929,-7.6962,-7.6973,-7.7102,-7.7129,-7.723,-7.7225,-7.7364,-7.7394,-7.7388,-7.7503,-7.7483,-7.7611,-7.7597,-7.781,-7.7778,-7.7792,-7.7785,-7.7934,-7.7921,-7.8417,-7.848,-7.8033,-7.8037,-7.8041,0,-7.6983,-7.7103,-7.7148,-7.7215,-7.7246,-7.7354,-7.7416,-7.7376,-7.7445,-7.7515,-7.7608,-7.7715,-7.7799,-7.7988,-7.7995,-7.8093,-7.8063,-7.823,-7.8077,-7.8088,-7.8067,-7.8061,-7.8073,-7.8261,-7.8266,-7.827,-7.8274,0,-7.7376,-7.7361,-7.7453,-7.7544,-7.762,-7.769,-7.7752,-7.7811,-7.7776,-7.7857,-7.7973,-7.8038,-7.8167,-7.8276,-7.8367,-7.8393,-7.833,-7.8322,-7.8361,-7.8378,-7.8382,-7.8383,-7.7876,-7.8311,-7.8307,-7.8304,-7.8302,-7.8301,-7.7663,-7.7766,-7.7813,-7.7919,-7.7961,-7.8021,-7.8117,-7.8124,-7.822,-7.8321,-7.8292,-7.8424,-7.8475,-7.859,-7.8626,-7.8729,-7.8667,-7.8724,-7.8739,-7.8754,-7.8773,-7.8364,-7.8745,-7.8744,-7.8743,-7.8742,-7.8742,0,-7.8053,-7.8078,-7.8176,-7.8264,-7.8348,-7.8278,-7.8343,-7.8418,-7.8535,-7.8587,-7.8671,-7.8805,-7.8909,-7.8925,-7.9024,-7.9104,-7.9077,-7.9132,-7.9126,-7.9134,-7.8822,-7.8778,-7.9152,-7.9152,-7.9152,-7.9151,-7.9151,-7.9151,-7.8265,-7.8435,-7.8426,-7.8616,-7.864,-7.8768,-7.8811,-7.8866,-7.8908,-7.906,-7.9146,-7.9155,-7.9193,-7.9294,-7.9387,-7.9389,-7.943,-7.9496,-7.9488,-7.9196,-7.9155,-7.9116,-7.9075,-7.9505,-7.9506,-7.9791,-7.9793,-7.9795]},{"header":{"parameterUnit":"m.s-1","parameterCategory":1,"la1":30.2991,"la2":30.254,"lo1":-89.0895,"lo2":-89.0444,"dy":0.0017,"dx":0.0017,"nx":28,"ny":28,"refTime":"2024-09-04T09:00:00:Z","depth":0,"parameterNumber":3,"parameterNumberName":"V-component_of_WINDS"},"data":[0,0,0,0,0,0,0,0,0,0,0,0,0,0,0,0,0,0,0,0,0,0,0,0,0,0,0,0,0,0,0,0,0,0,0,0,0,0,0,0,0,0,0,0,0,0,0,0,0,0,0,0,0,0,0,0,0,0,-3.4494,-3.4493,0,-3.4476,-3.4476,-3.4475,-3.4425,-3.4423,-3.4422,-3.4421,-3.4402,-3.4403,-3.4404,0,0,0,0,0,0,0,0,0,0,0,0,0,-3.4482,-3.4483,-3.4494,-3.4493,-3.4493,-3.4476,-3.4476,-3.4475,-3.4425,-3.4423,-3.4422,-3.4421,-3.4402,-3.4403,-3.4404,0,0,0,0,0,0,0,0,0,0,0,0,0,-3.4478,-3.4483,-3.4494,-3.4466,-3.4463,-3.4476,-3.4476,-3.4475,-3.4425,-3.4423,-3.4422,-3.442,-3.4402,-3.4403,-3.4404,-3.4442,0,0,-3.4406,-3.4406,0,0,0,0,0,0,0,0,-3.4478,-3.4478,-3.447,-3.4468,-3.4465,-3.4451,-3.4465,-3.4464,-3.4425,-3.444,-3.4421,-3.4419,-3.442,-3.4419,-3.4419,-3.4441,-3.444,-3.4406,-3.4407,-3.4407,-3.4407,0,0,0,0,0,0,0,-3.4479,-3.4479,-3.4487,-3.447,-3.4467,-3.4454,-3.4451,-3.4464,-3.4439,-3.4438,-3.4434,-3.4433,-3.4418,-3.4419,-3.4419,-3.444,-3.4406,-3.4407,-3.4407,-3.4408,-3.4489,-3.449,0,0,0,0,0,0,-3.4483,-3.448,-3.4487,-3.4486,-3.4468,-3.4455,-3.4453,-3.4457,-3.4439,-3.4435,-3.4434,-3.4431,-3.4418,-3.4418,-3.4418,-3.4459,-3.4407,-3.4408,-3.4408,-3.4487,-3.4489,-3.4491,0,0,0,0,0,0,-3.4483,-3.4484,-3.4488,-3.4482,-3.4481,-3.4457,-3.4463,-3.4457,-3.4458,-3.4436,-3.4431,-3.444,-3.4417,-3.4417,-3.4435,-3.4458,-3.4408,-3.4409,-3.4485,-3.4488,-3.449,-3.4543,0,0,0,0,0,0,-3.4483,-3.4485,-3.4499,-3.4482,-3.4482,-3.4507,-3.4464,-3.4458,-3.446,-3.4455,-3.444,-3.4436,-3.4416,-3.4435,-3.4436,-3.4458,-3.4409,-3.4483,-3.4486,-3.4489,-3.4539,-3.4547,-3.4554,0,0,0,0,0,-3.4483,-3.4516,-3.45,-3.4502,-3.45,-3.4508,-3.4508,-3.4484,-3.4462,-3.4476,-3.4461,-3.4436,-3.4455,-3.4437,-3.4438,-3.4461,-3.4481,-3.4485,-3.4489,-3.4536,-3.4546,-3.4554,0,0,0,0,0,0,-3.4536,-3.4513,-3.4496,-3.4524,-3.4519,-3.45,-3.4517,-3.4495,-3.4496,-3.4491,-3.4461,-3.4458,-3.4481,-3.4473,-3.4453,-3.4495,-3.4464,-3.4468,-3.4499,-3.4508,-3.4516,-3.4516,-3.441,0,0,0,0,0,-3.4551,-3.456,-3.4539,-3.4566,-3.4564,-3.4541,-3.4544,-3.4526,-3.4519,-3.4516,-3.4503,-3.4497,-3.4501,-3.4504,-3.4507,-3.4538,-3.4533,-3.4554,-3.4561,-3.4567,-3.4571,-3.4584,-3.4593,-3.4503,-3.4503,-3.4503,0,0,-3.4582,-3.4571,-3.4578,-3.4577,-3.457,-3.4579,-3.454,-3.4552,-3.4558,-3.4518,-3.4534,-3.4525,-3.4515,-3.454,-3.455,-3.4534,-3.4595,-3.4572,-3.4577,-3.4577,-3.4589,-3.4598,-3.4605,-3.4506,-3.4505,-3.4505,0,0,-3.4643,-3.4636,-3.4657,-3.4651,-3.4641,-3.4625,-3.463,-3.4614,-3.4606,-3.4622,-3.4592,-3.4599,-3.4607,-3.4601,-3.4599,-3.4656,-3.4632,-3.4658,-3.4696,-3.4709,-3.4716,-3.4722,-3.4741,-3.4748,-3.4662,-3.4662,-3.4662,0,-3.4683,-3.4696,-3.467,-3.4683,-3.4683,-3.4647,-3.4667,-3.4662,-3.4654,-3.4654,-3.4636,-3.4644,-3.4636,-3.4657,-3.4671,-3.4672,-3.4675,-3.4659,-3.4717,-3.4723,-3.4728,-3.4745,-3.4753,-3.4665,-3.4665,-3.4665,-3.4664,0,-3.4744,-3.4754,-3.4771,-3.4764,-3.4765,-3.4782,-3.4758,-3.4762,-3.4744,-3.4729,-3.4745,-3.4734,-3.4732,-3.4736,-3.4719,-3.4755,-3.4745,-3.4723,-3.4691,-3.474,-3.4756,-3.4762,-3.467,-3.4668,-3.4668,-3.4667,0,0,-3.4838,-3.4815,-3.4822,-3.4817,-3.4803,-3.4809,-3.4824,-3.4822,-3.4826,-3.4821,-3.4831,-3.4839,-3.4817,-3.4815,-3.4797,-3.4809,-3.4852,-3.4785,-3.4784,-3.4796,-3.4888,-3.4904,-3.4912,-3.4837,-3.4838,-3.4839,-3.4888,0,-3.4894,-3.4917,-3.4894,-3.4921,-3.4928,-3.4894,-3.4906,-3.4898,-3.4885,-3.4889,-3.4874,-3.4879,-3.4852,-3.485,-3.486,-3.4845,-3.487,-3.4841,-3.4844,-3.4845,-3.4846,-3.492,-3.4937,-3.4984,-3.4894,-3.4895,-3.4896,0,-3.4963,-3.496,-3.4988,-3.4971,-3.4973,-3.4984,-3.498,-3.4984,-3.4974,-3.4963,-3.496,-3.4938,-3.4949,-3.4919,-3.4933,-3.4914,-3.4914,-3.4907,-3.4908,-3.4906,-3.4872,-3.4918,-3.4999,-3.5005,-3.4906,-3.4905,-3.4904,0,-3.5026,-3.503,-3.5046,-3.5044,-3.5024,-3.5032,-3.5024,-3.5013,-3.5013,-3.5009,-3.5008,-3.5006,-3.5005,-3.5003,-3.498,-3.4961,-3.4997,-3.4965,-3.4987,-3.4987,-3.4995,-3.4994,-3.5074,-3.4998,-3.4998,-3.4998,-3.4998,0,-3.509,-3.5108,-3.5074,-3.5084,-3.5103,-3.5075,-3.5094,-3.5083,-3.5072,-3.5079,-3.5049,-3.5056,-3.5026,-3.5029,-3.5011,-3.5024,-3.5024,-3.5015,-3.5009,-3.5016,-3.5017,-3.5015,-3.501,-3.5,-3.4999,-3.4999,-3.4999,0,-3.5163,-3.5141,-3.5157,-3.5136,-3.5132,-3.5146,-3.5128,-3.5136,-3.5121,-3.5129,-3.5129,-3.5105,-3.5107,-3.5084,-3.5082,-3.5069,-3.509,-3.508,-3.5093,-3.5089,-3.5112,-3.5109,-3.5192,-3.52,-3.512,-3.5121,-3.5122,0,-3.5204,-3.5217,-3.5197,-3.5199,-3.5193,-3.5197,-3.5196,-3.517,-3.517,-3.5159,-3.5168,-3.5167,-3.5165,-3.5169,-3.5151,-3.5148,-3.5137,-3.5166,-3.5136,-3.5142,-3.5134,-3.5133,-3.5133,-3.5171,-3.5173,-3.5173,-3.5174,0,-3.5279,-3.5267,-3.5267,-3.5264,-3.5264,-3.526,-3.5254,-3.5257,-3.5228,-3.523,-3.5231,-3.5229,-3.5226,-3.5225,-3.5219,-3.521,-3.5187,-3.5184,-3.5188,-3.5194,-3.5201,-3.5195,-3.5108,-3.5182,-3.5181,-3.518,-3.518,-3.518,-3.5335,-3.5344,-3.5332,-3.5332,-3.5325,-3.532,-3.5325,-3.531,-3.5311,-3.5306,-3.529,-3.5294,-3.5282,-3.5271,-3.5264,-3.5265,-3.5251,-3.5258,-3.526,-3.5261,-3.5264,-3.5202,-3.5265,-3.5264,-3.5264,-3.5264,-3.5264,0,-3.5407,-3.5396,-3.5398,-3.539,-3.539,-3.5368,-3.536,-3.5362,-3.5365,-3.5356,-3.5354,-3.5354,-3.5353,-3.5335,-3.5331,-3.5335,-3.5324,-3.5335,-3.5333,-3.5331,-3.5279,-3.5274,-3.5344,-3.5344,-3.5344,-3.5344,-3.5344,-3.5344,-3.5443,-3.5456,-3.5443,-3.5452,-3.5441,-3.5444,-3.5441,-3.5436,-3.5428,-3.543,-3.5428,-3.5416,-3.5402,-3.5397,-3.5394,-3.5389,-3.5388,-3.5402,-3.5392,-3.5343,-3.5335,-3.5328,-3.5323,-3.5402,-3.5402,-3.5444,-3.5445,-3.5445]}]]